This is the latest recevied weather packets stored in our database for station/object N9PBY-2. If no packets are shown the sender has not sent any weather packets the latest 10 day(s).
| Time | Temp. | Humidity | Pressure | Rain* | Wind** | Luminosity | Snow |
|---|---|---|---|---|---|---|---|
| 1777660807 | 5.56° C | 55% | 1017.2 hPa | 0 mm | - | - | - |
| 1777660207 | 5° C | 55% | 1017.1 hPa | 0 mm | - | - | - |
| 1777659607 | 5° C | 56% | 1017.1 hPa | 0 mm | - | - | - |
| 1777659007 | 5° C | 54% | 1017.1 hPa | 0 mm | - | - | - |
| 1777658407 | 5.56° C | 55% | 1017.1 hPa | 0 mm | - | - | - |
| 1777657807 | 5.56° C | 57% | 1017.2 hPa | 0 mm | - | - | - |
| 1777657208 | 4.44° C | 59% | 1017.2 hPa | 0 mm | - | - | - |
| 1777656608 | 3.89° C | 56% | 1017.2 hPa | 0 mm | - | - | - |
| 1777656007 | 3.89° C | 56% | 1017.2 hPa | 0 mm | - | - | - |
| 1777655407 | 4.44° C | 59% | 1017.1 hPa | 0 mm | - | - | - |
| 1777654807 | 4.44° C | 58% | 1017.1 hPa | 0 mm | - | - | - |
| 1777654207 | 5° C | 59% | 1017 hPa | 0 mm | - | - | - |
| 1777653607 | 5° C | 57% | 1017.1 hPa | 0 mm | - | - | - |
| 1777653007 | 5° C | 57% | 1017 hPa | 0 mm | - | - | - |
| 1777652407 | 5° C | 55% | 1017 hPa | 0 mm | - | - | - |
| 1777651807 | 5° C | 57% | 1016.9 hPa | 0 mm | - | - | - |
| 1777651207 | 5° C | 56% | 1016.8 hPa | 0 mm | - | - | - |
| 1777650607 | 5° C | 56% | 1016.9 hPa | 0 mm | - | - | - |
| 1777650007 | 5.56° C | 58% | 1016.9 hPa | 0 mm | - | - | - |
| 1777649407 | 5.56° C | 59% | 1017 hPa | 0 mm | - | - | - |
| 1777648807 | 5° C | 59% | 1016.8 hPa | 0 mm | - | - | - |
| 1777648207 | 5° C | 60% | 1016.9 hPa | 0 mm | - | - | - |
| 1777647607 | 5.56° C | 60% | 1016.9 hPa | 0 mm | - | - | - |
| 1777647007 | 4.44° C | 61% | 1016.8 hPa | 0 mm | - | - | - |
| 1777646407 | 5° C | 60% | 1016.8 hPa | 0 mm | - | - | - |
* Rain latest hour (hover to see other rain measurements)
** Current wind speed in m/s (hover to see current wind gust speed)